STARLINK-31904, 59657

Orbit data source: Space-Track

STARLINK-31904, 59657 is a payload satellite owned by SpaceX/Seattle (US) in LEO that was launched on Mon, 06 May 2024 UTC via an FALCON 9 launch vehicle from the Air Force Eastern Test Range (AFETR). Payload-class satellites include a variety of spacecraft equipped with specific instruments for various scientific and technological missions. These include communications satellites like Starlink; space stations such as the ISS; scientific satellites like the Hubble; Earth observation satellites from companies like Planet Labs, Umbra, and HawkEye 360; GPS; miniature CubeSats for education and research; and military/defense satellites.

Loading next visibility...
Identifier
59657, 2024-084D
Orbit
LEO
Country
Flag of USUS
Related business
Manufacturer
SpaceX/Seattle
Mission
Operational Commercial Communications
Bus & Motor
STARLINK V2M, Unknown motor
Mass
730 kg wet, ~700 kg dry
Launch date (UTC)
2024-05-06 (1 year ago)
Launch vehicle
FALCON 9
Launch site
Air Force Eastern Test Range (AFETR)
Object type
Payload
Rocket body
Debris
Shape & HBR
Box + 2 Pan, 17.7 m
Radar Cross Section
33.884 m², Large (>1 m²)

Expand to show TLE details & history
Last TLE update: 7 hours ago

TLE from 7 hours ago
0 STARLINK-31904
1 59657U 24084D   25288.60553259  .00002447  00000-0  98431-4 0  9996
2 59657  43.0019 141.2192 0001869 272.9700  87.0938 15.27574482 82181
Epoch: 2025-10-15T14:31Z
TLE epoch observation values (Epoch: 2025-10-15T14:31:58.015Z)
Latitude
-0.00001°
Longitude
-101.14975°
Altitude
482.776 km
Speed
7.626 km/s
True Right ascension
09h 24m 52s
True Declination
0° 00' 00"
Sunlit
Object was in daylight at epoch
Visualization orbit readout
Latitude
Unknown
Longitude
Unknown
Altitude
Unknown
Speed
Unknown
Apparent Right ascension
Unknown
Apparent Declination
Unknown
Sunlit
N/A
Visualization observer readout
Local Sidereal Time
16:03:41
Azimuth
Unknown
Elevation
Unknown
Doppler factor
Unknown
Orbital elements
Apogee altitude
486.293 km
Perigee altitude
483.728 km
Semi-major axis
6,863.147 km
Eccentricity
0.00019
Inclination
43.0019°
RAAN
141.2192°
Arg. of periapsis
272.97°
True anomaly
87.11519°
Mean anomaly
87.0938°
Eccentric anomaly
87.10449°
Mean motion
3.81732 °/min
Orbital period
94.31 mins
BSTAR
0.000098431
Loading maneuver chart data...
Computing Atmospheric mass density...
Loading historical data...
Loading historical data...
Loading historical data...
Loading historical data...
Loading historical data...
Loading historical data...
Loading historical data...

Documentation

Showing up to 5 results
|